Torna al catalogo

DEIMOS

AttivoScienzaSSO
NORAD 60526·PAYLOAD·🇺🇸 United States

Lanciato Aug 16, 2024 da Vandenberg Space Force Base

Loading…

Prossimi Passaggi (prossime 24 ore)

TLE

AggiornatoSource: Space-Track

Epoca: Sep 14, 2026, 11:39 UTC

1 60526U 24149BL  26257.48603439  .00016999  00000-0  33535-3 0  9994
2 60526  97.3742 345.1257 0003998 331.4693  28.6337 15.47244592116244

Traccia DEIMOS in tempo reale con AllMySat

Download on the App Store